Weather History for KLGD - July, 2013

Change the Weather History Date:

Saturday, July 13, 2013

  Actual Average Record
Temperature  
Mean Temperature 66 °F -  
Max Temperature 82 °F 82 °F 102 °F (2002)
Min Temperature 51 °F 50 °F 40 °F (1976)
Cooling Degree Days 2    
Growing Degree Days 16 (Base 50)    
Moisture  
Dew Point 33 °F    
Average Humidity 30    
Maximum Humidity 44    
Minimum Humidity 17    
Precipitation  
Precipitation 0.00 in - - ()
Sea Level Pressure  
Sea Level Pressure 30.09 in    
Wind  
Wind Speed 11 mph (NNW)    
Max Wind Speed 16 mph    
Max Gust Speed 22 mph    
Visibility 10 miles    
Events      
Averages and records for this station are not official NWS values.
T = Trace of Precipitation, MM = Missing Value Source: NWS Daily Summary

Daily Weather History Graph

Daily Weather History Graph

Search for Another Location

Airport or City:

Trip Planner

Search our weather history database for the weather conditions in past years. The results will help you decide how hot, cold, wet, or windy it might be!

Date:

Astronomy

Jul. 13, 2013 Rise Set
Actual Time 5:17 AM PDT 8:38 PM PDT
Civil Twilight 4:40 AM PDT 9:14 PM PDT
Nautical Twilight 3:53 AM PDT 10:01 PM PDT
Astronomical Twilight 2:52 AM PDT 11:01 PM PDT
Moon 10:55 AM PDT (7/13) 11:01 PM PDT (7/13)
Length of Visible Light 16h 33m
Length of Day
15h 20m
Waxing Crescent, 26% of the Moon is Illuminated
Jul 13
Waxing Crescent
Jul 15
First Quarter
Jul 22
Full
Jul 29
Last Quarter
Aug 6
New

Hourly Weather History & Observations

Time (PDT) Temp. Dew Point Humidity Pressure Visibility Wind Dir Wind Speed Gust Speed Precip Events Conditions
12:15 AM 60.8 °F 26.6 °F 27% 30.03 in 10.0 mi NW 16.1 mph - N/A   Clear
12:35 AM 60.8 °F 28.4 °F 29% 30.04 in 10.0 mi NW 13.8 mph - N/A   Clear
12:55 AM 60.8 °F 30.2 °F 31% 30.04 in 10.0 mi WNW 13.8 mph 21.9 mph N/A   Clear
1:15 AM 60.8 °F 30.2 °F 31% 30.04 in 10.0 mi WNW 16.1 mph 20.7 mph N/A   Clear
1:35 AM 59.0 °F 28.4 °F 31% 30.05 in 10.0 mi NW 12.7 mph - N/A   Clear
1:55 AM 57.2 °F 30.2 °F 36% 30.05 in 10.0 mi NW 10.4 mph - N/A   Clear
2:15 AM 55.4 °F 30.2 °F 38% 30.06 in 10.0 mi NW 9.2 mph - N/A   Clear
2:35 AM 55.4 °F 30.2 °F 38% 30.06 in 10.0 mi NW 9.2 mph - N/A   Clear
2:55 AM 53.6 °F 28.4 °F 38% 30.06 in 10.0 mi NW 11.5 mph - N/A   Clear
3:15 AM 55.4 °F 30.2 °F 38% 30.07 in 10.0 mi NW 12.7 mph - N/A   Clear
3:35 AM 55.4 °F 28.4 °F 36% 30.07 in 10.0 mi WNW 13.8 mph - N/A   Clear
3:55 AM 53.6 °F 28.4 °F 38% 30.08 in 10.0 mi NW 11.5 mph - N/A   Clear
4:15 AM 53.6 °F 30.2 °F 41% 30.09 in 10.0 mi NW 10.4 mph - N/A   Clear
4:35 AM 53.6 °F 28.4 °F 38% 30.09 in 10.0 mi WNW 9.2 mph - N/A   Clear
4:55 AM 53.6 °F 30.2 °F 41% 30.09 in 10.0 mi WNW 10.4 mph - N/A   Clear
5:15 AM 53.6 °F 30.2 °F 41% 30.10 in 10.0 mi WNW 11.5 mph - N/A   Clear
5:35 AM 51.8 °F 30.2 °F 44% 30.11 in 10.0 mi NW 8.1 mph - N/A   Clear
5:55 AM 53.6 °F 30.2 °F 41% 30.11 in 10.0 mi NW 8.1 mph - N/A   Clear
6:15 AM 55.4 °F 30.2 °F 38% 30.12 in 10.0 mi NW 10.4 mph - N/A   Clear
6:35 AM 55.4 °F 30.2 °F 38% 30.12 in 10.0 mi NW 10.4 mph - N/A   Clear
6:55 AM 55.4 °F 32.0 °F 41% 30.12 in 10.0 mi North 9.2 mph - N/A   Clear
7:15 AM 55.4 °F 33.8 °F 44% 30.13 in 10.0 mi North 10.4 mph - N/A   Clear
7:35 AM 57.2 °F 33.8 °F 41% 30.13 in 10.0 mi North 10.4 mph - N/A   Clear
7:55 AM 59.0 °F 33.8 °F 39% 30.13 in 10.0 mi NNW 12.7 mph - N/A   Clear
8:15 AM 60.8 °F 33.8 °F 36% 30.14 in 10.0 mi NNW 13.8 mph - N/A   Clear
8:35 AM 62.6 °F 33.8 °F 34% 30.14 in 10.0 mi NNW 13.8 mph - N/A   Clear
8:55 AM 62.6 °F 33.8 °F 34% 30.14 in 10.0 mi NW 13.8 mph - N/A   Clear
9:15 AM 64.4 °F 33.8 °F 32% 30.14 in 10.0 mi NW 12.7 mph - N/A   Clear
9:35 AM 64.4 °F 33.8 °F 32% 30.14 in 10.0 mi NNW 12.7 mph - N/A   Clear
9:55 AM 66.2 °F 33.8 °F 30% 30.14 in 10.0 mi NW 10.4 mph - N/A   Clear
10:15 AM 68.0 °F 33.8 °F 28% 30.13 in 10.0 mi NW 9.2 mph - N/A   Clear
10:35 AM 69.8 °F 33.8 °F 27% 30.13 in 10.0 mi NW 8.1 mph - N/A   Clear
10:55 AM 71.6 °F 33.8 °F 25% 30.13 in 10.0 mi WNW 5.8 mph - N/A   Clear
11:15 AM 69.8 °F 32.0 °F 25% 30.13 in 10.0 mi North 5.8 mph - N/A   Clear
11:35 AM 71.6 °F 33.8 °F 25% 30.13 in 10.0 mi NW 3.5 mph - N/A   Clear
11:55 AM 73.4 °F 33.8 °F 23% 30.12 in 10.0 mi WNW 4.6 mph - N/A   Clear
12:15 PM 71.6 °F 33.8 °F 25% 30.12 in 10.0 mi NNW 5.8 mph - N/A   Clear
12:35 PM 73.4 °F 33.8 °F 23% 30.11 in 10.0 mi NNE 4.6 mph - N/A   Clear
12:55 PM 75.2 °F 33.8 °F 22% 30.11 in 10.0 mi North 6.9 mph - N/A   Clear
1:15 PM 75.2 °F 33.8 °F 22% 30.10 in 10.0 mi NNE 8.1 mph - N/A   Clear
1:35 PM 75.2 °F 33.8 °F 22% 30.10 in 5.0 mi North 4.6 mph - N/A   Clear
1:55 PM 77.0 °F 33.8 °F 21% 30.10 in 10.0 mi NNE 4.6 mph - N/A   Clear
2:15 PM 78.8 °F 33.8 °F 20% 30.09 in 10.0 mi NNE 5.8 mph - N/A   Clear
2:35 PM 80.6 °F 33.8 °F 18% 30.08 in 10.0 mi North 8.1 mph - N/A   Clear
2:55 PM 78.8 °F 33.8 °F 20% 30.08 in 10.0 mi NNW 5.8 mph - N/A   Clear
3:15 PM 78.8 °F 33.8 °F 20% 30.08 in 10.0 mi North 10.4 mph - N/A   Clear
3:35 PM 78.8 °F 33.8 °F 20% 30.07 in 10.0 mi North 9.2 mph - N/A   Clear
3:55 PM 82.4 °F 33.8 °F 17% 30.07 in 10.0 mi North 10.4 mph - N/A   Clear
4:15 PM 80.6 °F 33.8 °F 18% 30.06 in 10.0 mi North 5.8 mph - N/A   Clear
4:35 PM 80.6 °F 33.8 °F 18% 30.05 in 10.0 mi NNW 8.1 mph - N/A   Clear
4:55 PM 80.6 °F 33.8 °F 18% 30.05 in 10.0 mi NW 8.1 mph - N/A   Clear
5:15 PM 80.6 °F 35.6 °F 20% 30.05 in 10.0 mi North 6.9 mph - N/A   Clear
5:35 PM 80.6 °F 35.6 °F 20% 30.05 in 10.0 mi North 10.4 mph - N/A   Clear
5:55 PM 80.6 °F 35.6 °F 20% 30.05 in 10.0 mi NNE 9.2 mph - N/A   Clear
6:15 PM 80.6 °F 35.6 °F 20% 30.05 in 10.0 mi NNW 9.2 mph - N/A   Clear
6:35 PM 78.8 °F 37.4 °F 23% 30.05 in 10.0 mi North 9.2 mph - N/A   Clear
6:55 PM 77.0 °F 37.4 °F 24% 30.05 in 10.0 mi North 9.2 mph - N/A   Clear
7:15 PM 75.2 °F 37.4 °F 25% 30.05 in 10.0 mi North 10.4 mph - N/A   Clear
7:35 PM 75.2 °F 37.4 °F 25% 30.05 in 10.0 mi NNW 6.9 mph - N/A   Clear
7:55 PM 73.4 °F 37.4 °F 27% 30.06 in 10.0 mi NW 5.8 mph - N/A   Clear
8:15 PM 71.6 °F 33.8 °F 25% 30.06 in 10.0 mi NNW 5.8 mph - N/A   Clear
8:35 PM 68.0 °F 33.8 °F 28% 30.06 in 10.0 mi WNW 9.2 mph - N/A   Clear
8:55 PM 69.8 °F 32.0 °F 25% 30.06 in 10.0 mi WNW 10.4 mph - N/A   Clear
9:15 PM 68.0 °F 32.0 °F 26% 30.07 in 10.0 mi NE 8.1 mph - N/A   Clear
9:35 PM 64.4 °F 32.0 °F 30% 30.08 in 10.0 mi NNE 9.2 mph - N/A   Clear
9:55 PM 62.6 °F 33.8 °F 34% 30.08 in 10.0 mi North 10.4 mph - N/A   Clear
10:15 PM 62.6 °F 35.6 °F 37% 30.08 in 10.0 mi North 10.4 mph - N/A   Clear
10:35 PM 62.6 °F 33.8 °F 34% 30.07 in 10.0 mi NNW 9.2 mph - N/A   Clear
10:55 PM 60.8 °F 33.8 °F 36% 30.08 in 10.0 mi NW 8.1 mph - N/A   Clear
11:15 PM 60.8 °F 33.8 °F 36% 30.08 in 10.0 mi NNW 4.6 mph - N/A   Clear
11:35 PM 62.6 °F 33.8 °F 34% 30.09 in 10.0 mi NW 8.1 mph - N/A   Clear
11:55 PM 60.8 °F 33.8 °F 36% 30.09 in 10.0 mi NW 9.2 mph - N/A   Clear